Flag for Germany Weather past 2 weeks in Forchheim, Bavaria, Germany

Now
52 °F

Fog.


Feels Like: 52 °F
Forecast: 53 / 74 °F
Wind: No wind

Location: Bamberg

Current Time: Sep 16, 2014 at 4:00:02 AM

Latest Report: Sep 16, 2014 at 3:00 AM


Visibility: 3 mi

Pressure: 30.04 "Hg

Humidity: 100%

Dew point: 52 °F

Location of ForchheimLocation

Historic Weather in Forchheim — Graph

°F

Forchheim temperature yesterday

Maximum temperature yesterday: 72 °F (at 3:00 PM)
Minimum temperature yesterday: 54 °F (at 11:00 PM)
Average temperature yesterday: 63 °F

Past Weeks' High & Low Weather Summary

 TemperatureHumidityPressure
High78 °F (Sep 5, 3:00 PM)100% (Sep 1, 3:00 AM)30.19 "Hg (Sep 1, 3:00 AM)
Low43 °F (Sep 11, 5:00 AM)47% (Sep 9, 5:00 PM)29.86 "Hg (Sep 6, 5:00 PM)
Average61 °F88%30.04 "Hg
* Reported Sep 1 3:00 AM — Sep 16 3:00 AM, Forchheim, Weather by CustomWeather, © 2014

Note: Actual official high and low records may vary slightly from our data, if they occured in-between our weather recording intervals... More about our weather records

Advertising

Forchheim weather history for previous 24 hours

 ConditionsComfort  
Time TempWeatherWind HumidityBarometerVisibility
3:00 AM
Sep 16
52 °FFog.No wind100%30.04 "Hg3 mi
2:00 AM53 °FFog.No wind100%30.03 "Hg4 mi
1:00 AM54 °FFog.1 mph100%30.03 "Hg4 mi
12:00 AM54 °FFog.1 mph100%30.03 "Hg4 mi
11:00 PM
Sep 15
54 °FFog.No wind100%30.03 "Hg4 mi
10:00 PM56 °FOvercast.1 mph100%30.02 "Hg6 mi
9:00 PM58 °FOvercast.1 mph100%30.02 "Hg5 mi
8:00 PM60 °FPassing clouds.1 mph97%30.01 "Hg6 mi
7:00 PM65 °FOvercast.1 mph90%29.99 "Hg14 mi
6:00 PM68 °FPartly sunny.1 mph75%29.99 "Hg22 mi
5:00 PM71 °FOvercast.3 mph65%29.99 "Hg28 mi
4:00 PM71 °FOvercast.3 mph62%29.99 "Hg31 mi
3:00 PM72 °FOvercast.1 mph59%30.00 "Hg22 mi
2:00 PM72 °FScattered clouds.2 mph66%30.02 "Hg19 mi
1:00 PM68 °FOvercast.1 mph79%30.04 "Hg13 mi
12:00 PM67 °FOvercast.1 mph79%30.04 "Hg13 mi
11:00 AM66 °FOvercast.1 mph82%30.04 "Hg14 mi
10:00 AM64 °FOvercast.1 mph86%30.04 "Hg13 mi
9:00 AM62 °FOvercast.No wind92%30.03 "Hg10 mi
8:00 AM60 °FOvercast.1 mph100%30.03 "Hg9 mi
7:00 AM58 °FOvercast.No wind99%30.03 "Hg7 mi
6:00 AM59 °FOvercast.1 mph99%30.03 "Hg9 mi
5:00 AM59 °FOvercast.1 mph99%30.04 "Hg12 mi
4:00 AM58 °FOvercast.No wind99%30.04 "Hg7 mi
Weather by CustomWeather, © 2014

See weather overviewHow to use our weather pages